Погода Охоны

Погода Охоны : погода сейчас, прогноз погоды и архив. Всё, что Вы хотите узнать о погоде Охоны!

Поиск расширенной информации на нашем сайте:

Другие новости

Новости СМИ2

Главная страница сайта

Новости сайта

03.07.2017

Напоминаем, что на нашем специализированном сайте Метеоцентр.Азия вы можете получить высокодетализированные автоматические прогнозы погоды по пунктам России, СНГ и мира в авиационном формате (включающие направление и скорость ветра, видимость, явления погоды, количество и форму облачности, нижнюю и верхнюю границу облачности).


Погода Охоны - сегодня

Время (UTC), дата Ветер
(°,м/с) 
Видим.   Явления Облачность Т
(°С)
Тd
(°С)
f(%) Тe
(°С)
Pmin
(гПа)
dP
(гПа)
Po
(мм)
O2
(г/м3)
Тmin Tmax R s Состояние
почвы
21 16.06.18 тихо ()   н/о    н/о 
+11.1 +9.7 91 +12  1020.6  0.5  752  289           
00 17.06.18 тихо ()   н/о    н/о 
+8.4 +7.7 95 +8  1021.4  0.5  753  293           
03 17.06.18 тихо ()   н/о    н/о 
+15 +10.9 76 +17  1021.2  0.3  753  286  +8         
09 17.06.18 210 (ЮЗ) н/о    н/о 
+23.5 +9.7 42 +24  1020  -0.4  752  277           
12 17.06.18 120 (ЮВ) н/о    н/о 
+24.7 +7.6 34 +25  1018.8  -1.1  751  276           
15 17.06.18 050 (СВ) н/о    н/о 
+24.3 +10.5 42 +26  1017.9  -0.9  751  276           
21 17.06.18 тихо ()   н/о    н/о 
+13.2 +11.9 92 +17  1018.4  0.3  751  286           
00 18.06.18 тихо ()   н/о    н/о 
+11.6 +10.7 94 +14  1018.5  751  288           
03 18.06.18 070 (В) н/о    н/о 
+14.1 +12 87 +19  1017.7  -0.6  750  285  +11.2         
09 18.06.18 140 (ЮВ) н/о    н/о 
+25.7 +9.3 35 +26  1015.4  -1.1  749  274           
12 18.06.18 210 (ЮЗ) н/о    н/о 
+26.1 +10 36 +27  1014.3  -1.1  748  273           
15 18.06.18 150 (ЮВ) н/о    н/о 
+26.1 +10.2 37 +28  1012.7  -1.5  747  273           
21 18.06.18 тихо ()   н/о    н/о 
+18.4 +14.4 78 +26  1012.3  -0.6  746  279           
00 19.06.18 260 (З) н/о    н/о 
+15.2 +13.9 92 +24  1012  -0.5  746  282           
03 19.06.18 250 (З) н/о    н/о 
+17.5 +14.8 84 +26  1011.5  -0.4  746  279  +13.9         
09 19.06.18 240 (ЮЗ) н/о    н/о 
+22.8 +14 58 +30  1009.5  -1.3  745  274           
15 19.06.18 260 (З) 5{12}  н/о    н/о 
+21.1 +9.8 48 +22  1006.4  -1.5  742  276           
21 19.06.18 260 (З) 6-14{16}  н/о    н/о 
+14.7 +13.1 90 +20  1003.6  -1.4  740  280           
09 20.06.18 270 (З) 8-16{16}  н/о    н/о 
+18.8 +7.2 47 +19  1004.3  -0.3  740  278           
21 20.06.18 250 (З) н/о    н/о 
+11.8 +6.8 71 +12  1007.6  743  286           
00 21.06.18 240 (ЮЗ) н/о    н/о 
+11 +8.2 83 +11  1007.7  743  286           
03 21.06.18 250 (З) н/о    н/о 
+12.4 +8.8 79 +12  1007.9  0.3  743  285  +11         
09 21.06.18 260 (З) 5{10}  н/о    н/о 
+19.1 +5.3 40 +19  1008  743  279           
15 21.06.18 250 (З) 4{10}  н/о    н/о 
+19.5 +11.1 58 +23  1008.8  0.6  744  278           
21 21.06.18 тихо ()   н/о    н/о 
+14.5 +12.6 88 +19  1009  -0.3  744  282           
Время (UTC), дата Ветер
(°,м/с) 
Видим.   Явления Облачность Т
(°С)
Тd
(°С)
f(%) Тe
(°С)
Pmin
(гПа)
dP
(гПа)
Po
(мм)
O2
(г/м3)
Тmin Tmax R s Состояние
почвы

Для получения пояснительной информации подведите курсор к названию столбца.

ПОГОДА Охоны - архив

Всё, что Вы хотите узнать о погоде Охоны - удобно и подробно!

Выберите нужную дату (начиная с 1 января 2015* года) и нажмите кнопку "Найти".
Будут отображены архивные сводки погоды по пункту Охоны, начиная с указанной даты.


Отображать данные в формате CSV (для использования в таблицах Excel)


Внимание! Наш архив погоды предназначен исключительно для личного некоммерческого использования в познавательных целях. Если Вам необходимы официальные справки о состоянии погоды (для производственных, юридических, коммерческих и т.п. целей), обращайтесь в органы Росгидромета.

*Примечание: данная дата относится к архиву по метеостанциям СССР (Россия, СНГ, Балтия).
Архив по метеостанциям Зарубежной Европы и Азии (кроме Китая) хранится 10 дней, по другим регионам земного шара (Китай, Африка, Америка, Австралия, Океания) - 1 день.

Охоны - район местоположения метеостанции


Название, широта, долгота, высота метеостанции:
Охоны 58.6°ш. 35.6°д. 145 м над ур. моря [Российская Федерация]

Дополнительная информация

В oтличие oт бoльшинства пoгoдных сайтoв мы публикуем пoдрoбную метеoинфoрмацию в детальнoм прoфессиoнальнoм фoрмате.

Характеристики температуры и влажнoсти вoздуха измеряются на высoте 2 м в тени вдали oт зданий и деревьев.
Скoрoсть ветра измеряется на высoте 10 м (на урoвне рoста челoвека скoрoсть ветра ниже в 1.5-2 раза). Если метеoстанция нахoдится в гoрoде или в лесу, тo скoрoсть ветра занижена на 2-4 м/с пo сравнению с oткрытым местoм. Скoрoсть ветра над акватoриями крупных рек и oзёр, а также на вершинах хoлмoв на 2-5 м/с выше, чем в oбычных услoвиях.
Атмoсфернoе давление в разных тoчках местнoсти мoжет значительнo oтличаться oт давления на метеoстанции, в зависимoсти oт услoвий рельефа (при пoдъёме на 10 м давление пoнижается примернo на 1 мм рт.ст.).